Weather History for Fitchburg, MA

Change the Weather History Date:

Thursday, July 3, 2014

  Actual Average (KORH) Record (KORH)
Temperature  
Mean Temperature 80 °F 69 °F  
Max Temperature 91 °F 78 °F 96 °F (1911)
Min Temperature 71 °F 60 °F 45 °F (1940)
Degree Days  
Heating Degree Days 0 1  
Month to date heating degree days 3  
Since 1 June heating degree days 86  
Since 1 July heating degree days 3  
Cooling Degree Days 15 5  
Month to date cooling degree days 15  
Year to date cooling degree days 121  
Since 1 June cooling degree days 99  
Growing Degree Days 30 (Base 50)    
Moisture  
Dew Point 70 °F    
Average Humidity 79    
Maximum Humidity 91    
Minimum Humidity 53    
Precipitation  
Precipitation 0.23 in 0.12 in 1.74 in (1997)
Month to date precipitation 0.36  
Year to date precipitation 23.78  
Sea Level Pressure  
Sea Level Pressure 29.95 in    
Wind  
Wind Speed 2 mph (SSW)    
Max Wind Speed 10 mph    
Max Gust Speed 20 mph    
Visibility 9 miles    
Events Rain , Thunderstorm    
T = Trace of Precipitation, MM = Missing Value Source: NWS Daily Summary

Daily Weather History Graph

Daily Weather History Graph

Search for Another Location

Airport:

Trip Planner

Search our weather history database for the weather conditions in past years. The results will help you decide how hot, cold, wet, or windy it might be!

Date:

Astronomy

Jul. 03, 2014 Rise Set
Actual Time 5:14 AM EDT 8:27 PM EDT
Civil Twilight 4:39 AM EDT 9:02 PM EDT
Nautical Twilight 3:55 AM EDT 9:47 PM EDT
Astronomical Twilight 3:00 AM EDT 10:41 PM EDT
Moon 11:18 AM EDT (7/3) 11:40 PM EDT (7/3)
Length of Visible Light 16h 22m
Length of Day
15h 13m
Waxing Crescent, 33% of the Moon is Illuminated
Jul 3
Waxing Crescent
Jul 5
First Quarter
Jul 12
Full
Jul 18
Last Quarter
Jul 26
New

Hourly Weather History & Observations

Time (EDT) Temp. Heat Index Dew Point Humidity Pressure Visibility Wind Dir Wind Speed Gust Speed Precip Events Conditions
12:52 AM 71.1 °F - 68.0 °F 90% 29.93 in 10.0 mi Calm Calm - N/A   Clear
1:52 AM 71.1 °F - 68.0 °F 90% 29.93 in 10.0 mi Calm Calm - N/A   Mostly Cloudy
2:15 AM 72.0 °F - 68.0 °F 87% 29.93 in 10.0 mi North 3.5 mph - N/A   Overcast
2:52 AM 72.0 °F - 68.0 °F 87% 29.93 in 10.0 mi Calm Calm - N/A   Overcast
3:52 AM 73.0 °F - 69.1 °F 87% 29.93 in 10.0 mi Calm Calm - N/A   Overcast
4:15 AM 72.0 °F - 69.1 °F 91% 29.93 in 9.0 mi Variable 3.5 mph - N/A   Scattered Clouds
4:52 AM 71.1 °F - 68.0 °F 90% 29.94 in 8.0 mi Calm Calm - N/A   Mostly Cloudy
5:52 AM 72.0 °F - 69.1 °F 91% 29.96 in 7.0 mi Calm Calm - N/A   Mostly Cloudy
6:02 AM 73.0 °F - 69.1 °F 87% 29.96 in 7.0 mi Calm Calm - N/A   Mostly Cloudy
6:10 AM 73.0 °F - 69.1 °F 87% 29.97 in 8.0 mi Calm Calm - N/A   Mostly Cloudy
6:19 AM 73.0 °F - 69.1 °F 87% 29.97 in 9.0 mi Calm Calm - N/A   Overcast
6:52 AM 73.9 °F - 69.1 °F 85% 29.96 in 10.0 mi Calm Calm - N/A   Mostly Cloudy
7:24 AM 75.0 °F - 69.1 °F 82% 29.96 in 10.0 mi Calm Calm - N/A   Mostly Cloudy
7:52 AM 75.0 °F - 69.1 °F 82% 29.96 in 10.0 mi Calm Calm - N/A   Mostly Cloudy
8:42 AM 78.1 °F - 70.0 °F 76% 29.96 in 10.0 mi Calm Calm - N/A   Scattered Clouds
8:52 AM 78.1 °F - 70.0 °F 76% 29.96 in 10.0 mi Calm Calm - N/A   Partly Cloudy
9:05 AM 79.0 °F - 70.0 °F 74% 29.97 in 10.0 mi Calm Calm - N/A   Scattered Clouds
10:52 AM 82.0 °F 85.9 °F 70.0 °F 67% 29.97 in 10.0 mi Calm Calm - N/A   Partly Cloudy
11:52 AM 84.0 °F 89.6 °F 72.0 °F 67% 29.97 in 10.0 mi Variable 5.8 mph - N/A   Scattered Clouds
12:52 PM 87.1 °F 92.8 °F 71.1 °F 59% 29.96 in 10.0 mi North - - N/A   Scattered Clouds
1:52 PM 89.1 °F 94.1 °F 70.0 °F 53% 29.95 in 10.0 mi SW 5.8 mph - N/A   Partly Cloudy
3:36 PM 88.0 °F 94.7 °F 72.0 °F 59% 29.93 in 9.0 mi SSW 8.1 mph - N/A Thunderstorm Partly Cloudy
3:52 PM 88.0 °F 94.7 °F 72.0 °F 59% 29.92 in 9.0 mi South 10.4 mph - N/A Thunderstorm Mostly Cloudy
4:00 PM 87.1 °F 93.6 °F 72.0 °F 61% 29.93 in 10.0 mi South 10.4 mph - 0.00 in Thunderstorm Thunderstorm
4:52 PM 78.1 °F - 71.1 °F 79% 29.94 in 6.0 mi South 9.2 mph - 0.02 in Rain , Thunderstorm Light Thunderstorms and Rain
5:25 PM 78.1 °F - 68.0 °F 71% 29.91 in 10.0 mi South 4.6 mph - 0.04 in Rain , Thunderstorm Light Rain
5:37 PM 79.0 °F - 70.0 °F 74% 29.90 in 10.0 mi West 3.5 mph - 0.04 in Rain Light Rain
5:52 PM 81.0 °F 84.4 °F 70.0 °F 69% 29.88 in 9.0 mi Variable 4.6 mph - 0.04 in   Partly Cloudy
6:25 PM 80.1 °F 83.6 °F 71.1 °F 74% 29.89 in 10.0 mi SSE 5.8 mph - N/A   Partly Cloudy
6:52 PM 79.0 °F - 71.1 °F 77% 29.91 in 10.0 mi ESE 3.5 mph - N/A   Partly Cloudy
8:52 PM 75.9 °F - 71.1 °F 85% 29.94 in 10.0 mi Calm Calm - N/A   Partly Cloudy
9:09 PM 77.0 °F - 71.1 °F 82% 29.94 in 10.0 mi Calm Calm - N/A Thunderstorm Mostly Cloudy
9:52 PM 77.0 °F - 72.0 °F 84% 29.96 in 10.0 mi Variable 3.5 mph - 0.00 in Rain , Thunderstorm Light Rain
10:13 PM 75.0 °F - 68.0 °F 79% 30.00 in 10.0 mi WNW 9.2 mph 19.6 mph 0.00 in Rain Light Rain
10:25 PM 73.9 °F - 68.0 °F 82% 30.03 in 8.0 mi SW 9.2 mph - 0.01 in Rain , Thunderstorm Light Thunderstorms and Rain
10:52 PM 72.0 °F - 68.0 °F 87% 29.99 in 4.0 mi NW 6.9 mph - 0.11 in Rain , Thunderstorm Rain
11:02 PM 72.0 °F - 68.0 °F 87% 30.01 in 5.0 mi West 4.6 mph - 0.02 in Rain Rain
11:52 PM 72.0 °F - 66.9 °F 84% 29.96 in 10.0 mi ENE 4.6 mph - 0.06 in Rain Light Rain